Time,TemperatureF,DewpointF,PressureIn,WindDirection,WindDirectionDegrees,WindSpeedMPH,WindSpeedGustMPH,Humidity,HourlyPrecipIn,Conditions,Clouds,dailyrainin,SolarRadiationWatts/m^2,SoftwareType,DateUTC
2013-02-20 00:00:00,15.0,-99.9,-100.00,WNW,303,2.0,6.0,-999,-99.99,,,0.01,0.000000,,2013-02-20 07:00:00,
2013-02-20 00:52:00,15.0,-99.9,-100.00,WNW,303,2.0,6.0,-999,-99.99,,,0.01,0.000000,,2013-02-20 07:52:00,
2013-02-20 01:00:00,12.0,-99.9,-100.00,WNW,297,0.0,3.0,-999,-99.99,,,-99.99,0.000000,,2013-02-20 08:00:00,
2013-02-20 01:52:00,12.0,-99.9,-100.00,WNW,297,0.0,3.0,-999,-99.99,,,-99.99,0.000000,,2013-02-20 08:52:00,
2013-02-20 02:00:00,11.0,-99.9,-100.00,NNW,346,1.0,4.0,-999,-99.99,,,-99.99,0.000000,,2013-02-20 09:00:00,
2013-02-20 02:52:00,11.0,-99.9,-100.00,NNW,346,1.0,4.0,-999,-99.99,,,-99.99,0.000000,,2013-02-20 09:52:00,
2013-02-20 03:00:00,13.0,-99.9,-100.00,NE,51,1.0,3.0,-999,-99.99,,,-99.99,0.000000,,2013-02-20 10:00:00,
2013-02-20 04:00:00,11.0,-99.9,-100.00,WNW,303,1.0,4.0,-999,-99.99,,,-99.99,0.000000,,2013-02-20 11:00:00,
2013-02-20 04:52:00,11.0,-99.9,-100.00,WNW,303,1.0,4.0,-999,-99.99,,,-99.99,0.000000,,2013-02-20 11:52:00,
2013-02-20 05:00:00,7.0,-99.9,-100.00,WSW,246,0.0,2.0,-999,-99.99,,,-99.99,0.000000,,2013-02-20 12:00:00,
2013-02-20 07:00:00,2.0,-99.9,-100.00,NE,36,1.0,3.0,-999,-99.99,,,-99.99,0.000000,,2013-02-20 14:00:00,
2013-02-20 07:52:00,2.0,-99.9,-100.00,NE,36,1.0,3.0,-999,-99.99,,,-99.99,0.000000,,2013-02-20 14:52:00,
2013-02-20 08:00:00,-1.0,-99.9,-100.00,NNW,348,0.0,2.0,-999,-99.99,,,-99.99,0.000000,,2013-02-20 15:00:00,
2013-02-20 09:00:00,3.0,-99.9,-100.00,North,8,1.0,2.0,-999,-99.99,,,-99.99,0.300000,,2013-02-20 16:00:00,
2013-02-20 09:52:00,3.0,-99.9,-100.00,North,8,1.0,2.0,-999,-99.99,,,-99.99,0.300000,,2013-02-20 16:52:00,
2013-02-20 10:00:00,17.0,-99.9,-100.00,NNW,335,0.0,1.0,-999,-99.99,,,-99.99,2.500000,,2013-02-20 17:00:00,
2013-02-20 10:52:00,17.0,-99.9,-100.00,NNW,335,0.0,1.0,-999,-99.99,,,-99.99,2.500000,,2013-02-20 17:52:00,
2013-02-20 11:00:00,27.0,-99.9,-100.00,NW,320,2.0,6.0,-999,-99.99,,,0.00,4.100000,,2013-02-20 18:00:00,
2013-02-20 11:52:00,27.0,-99.9,-100.00,NW,320,2.0,6.0,-999,-99.99,,,0.00,4.100000,,2013-02-20 18:52:00,
2013-02-20 12:00:00,31.0,-99.9,-100.00,WNW,300,7.0,10.0,-999,-99.99,,,0.00,5.300000,,2013-02-20 19:00:00,
2013-02-20 12:52:00,31.0,-99.9,-100.00,WNW,300,7.0,10.0,-999,-99.99,,,0.00,5.300000,,2013-02-20 19:52:00,
2013-02-20 13:00:00,32.0,-99.9,-100.00,NW,305,8.0,13.0,-999,-99.99,,,-99.99,5.900000,,2013-02-20 20:00:00,
2013-02-20 13:52:00,32.0,-99.9,-100.00,NW,305,8.0,13.0,-999,-99.99,,,-99.99,5.900000,,2013-02-20 20:52:00,
2013-02-20 14:00:00,33.0,-99.9,-100.00,WNW,297,9.0,13.0,-999,-99.99,,,0.00,6.800000,,2013-02-20 21:00:00,
2013-02-20 14:52:00,33.0,-99.9,-100.00,WNW,297,9.0,13.0,-999,-99.99,,,0.00,6.800000,,2013-02-20 21:52:00,
2013-02-20 15:00:00,32.0,-99.9,-100.00,WNW,300,10.0,15.0,-999,-99.99,,,-99.99,6.300000,,2013-02-20 22:00:00,
2013-02-20 15:52:00,32.0,-99.9,-100.00,WNW,300,10.0,15.0,-999,-99.99,,,-99.99,6.300000,,2013-02-20 22:52:00,
2013-02-20 16:00:00,31.0,-99.9,-100.00,WNW,301,9.0,12.0,-999,-99.99,,,-99.99,5.100000,,2013-02-20 23:00:00,
2013-02-20 16:53:00,31.0,-99.9,-100.00,WNW,301,9.0,12.0,-999,-99.99,,,-99.99,5.100000,,2013-02-20 23:53:00,
2013-02-20 17:00:00,29.0,-99.9,-100.00,WNW,302,9.0,13.0,-999,-99.99,,,-99.99,3.700000,,2013-02-21 00:00:00,
2013-02-20 17:53:00,29.0,-99.9,-100.00,WNW,302,9.0,13.0,-999,-99.99,,,-99.99,3.700000,,2013-02-21 00:53:00,
2013-02-20 18:00:00,26.0,-99.9,-100.00,NW,310,10.0,14.0,-999,-99.99,,,-99.99,1.900000,,2013-02-21 01:00:00,
2013-02-20 18:52:00,26.0,-99.9,-100.00,NW,310,10.0,14.0,-999,-99.99,,,-99.99,1.900000,,2013-02-21 01:52:00,
2013-02-20 19:00:00,21.0,-99.9,-100.00,NW,317,9.0,12.0,-999,-99.99,,,-99.99,0.000000,,2013-02-21 02:00:00,
2013-02-20 20:00:00,19.0,-99.9,-100.00,NNW,341,7.0,10.0,-999,-99.99,,,0.00,0.000000,,2013-02-21 03:00:00,
2013-02-20 20:52:00,19.0,-99.9,-100.00,NNW,341,7.0,10.0,-999,-99.99,,,0.00,0.000000,,2013-02-21 03:52:00,
2013-02-20 21:00:00,13.0,-99.9,-100.00,NNW,338,4.0,9.0,-999,-99.99,,,-99.99,0.000000,,2013-02-21 04:00:00,
2013-02-20 21:52:00,13.0,-99.9,-100.00,NNW,338,4.0,9.0,-999,-99.99,,,-99.99,0.000000,,2013-02-21 04:52:00,
2013-02-20 22:00:00,7.0,-99.9,-100.00,NNW,339,3.0,9.0,-999,-99.99,,,-99.99,0.000000,,2013-02-21 05:00:00,
2013-02-20 23:00:00,9.0,-99.9,-100.00,NNW,348,4.0,11.0,-999,-99.99,,,-99.99,0.000000,,2013-02-21 06:00:00,
2013-02-20 23:52:00,9.0,-99.9,-100.00,NNW,348,4.0,11.0,-999,-99.99,,,-99.99,0.000000,,2013-02-21 06:52:00,